Current Version              Previous Version:    01  02  03  04  05  06  07  08  09  10  11  12  13  14  15  16  17  18  19  20  21  22  23  24  25  26  27  28  29  30  
   31  32  33  34  35  36  37  38  39  40  41  42  43  44  45  46  47  48  49  50  51  52  53  54  55  56  57  58  59  60  

[Printable]
420
ASUS44 KLUB 302110
RWRTX
WEST TEXAS WEATHER ROUNDUP
NATIONAL WEATHER SERVICE LUBBOCK TX
400 PM CDT SAT AUG 30 2014

NOTE: "FAIR" INDICATES FEW OR NO CLOUDS BELOW 12,000 FEET WITH NO
SIGNIFICANT WEATHER AND/OR OBSTRUCTIONS TO VISIBILITY.

TXZ004-006>008-010-012-014-016-OKZ002-302200-
TEXAS PANHANDLE/OKLAHOMA PANHANDLE

CITY           SKY/WX    TMP DP  RH WIND       PRES   REMARKS
AMARILLO       MOSUNNY   92  47  21 S13       30.00F
BORGER         MOSUNNY   95  48  20 SW9G16    29.95F
CANADIAN       MOSUNNY   92  59  32 S7        29.92F
DALHART        SUNNY     93  49  22 SW15G22   29.99F
DUMAS          SUNNY     90  52  26 S9G18     29.98F
GUYMON         MOSUNNY   94  49  21 S18G28    29.91F
HEREFORD       MOSUNNY   93  46  19 S17       30.01F
PAMPA          MOSUNNY   92  46  20 SW5       29.99F
PERRYTON       SUNNY     92  53  26 S12G22    29.94F
$$

TXZ026-029-035-045-048-302200-
SOUTHERN PANHANDLE/SOUTH PLAINS/ROLLING PLAINS

CITY           SKY/WX    TMP DP  RH WIND       PRES   REMARKS
CHILDRESS      SUNNY     93  62  35 CALM      29.94F
SEMINOLE       SUNNY     95  46  18 E7        30.02F
LUBBOCK        MOSUNNY   93  49  22 SE15      30.01F
PLAINVIEW      MOSUNNY   90  55  30 SE8       29.99F
SNYDER         MOSUNNY   92  56  29 E3        29.98F
$$

TXZ052-054-060>062-072-078-127-140-154-169-302200-
PERMIAN BASIN/CONCHO VALLEY/BIG COUNTRY/EDWARDS PLATEAU

CITY           SKY/WX    TMP DP  RH WIND       PRES   REMARKS
ABILENE        SUNNY     96  58  27 E12       29.93F HX  95
BIG SPRING     SUNNY     94  51  23 NW6       29.99F
BRADY          PTSUNNY   91  64  40 E7        29.93F
BROWNWOOD      MOSUNNY   93  68  43 E6        29.91F HX  97
JUNCTION       PTSUNNY   93  67  42 NE7       29.92F HX  96
MIDLAND        SUNNY     94  53  25 MISG      29.97F
ODESSA         SUNNY     93  49  22 CALM      29.98F
SAN ANGELO     SUNNY     96  62  32 E9        29.92F HX  97
SONORA         SUNNY     91  66  43 CALM      29.96F
SWEETWATER     SUNNY     92  51  24 NE8       29.99F
WINK           SUNNY     99  42  14 SE12G17   29.94F
$$

TXZ055-058-074-075-080-082-302200-
FAR WEST/SOUTHWEST MOUNTAINS/TRANS PECOS

CITY           SKY/WX    TMP DP  RH WIND       PRES   REMARKS
ALPINE         SUNNY     91  47  22 N7        30.11F
DRYDEN           N/A    101  57  23 MISG      29.90F HX 100
EL PASO        MOSUNNY   95  38  13 VRB6      30.00F
FORT STOCKTON  SUNNY     95  50  21 E10       29.96F
GUADALUPE PASS PTSUNNY   88  45  22 S10G17    30.15F
MARFA          MOSUNNY   88  48  25 NE8       30.11F
PECOS          SUNNY     96  44  16 SW3       29.93F
PRESIDIO       MOCLDY    96  53  22 CALM      29.91F
$$

TXZ014-016-019-021>030-083-302200
TEXAS TECH WEST TEXAS MESONET/TEXAS PANHANDLE/NORTHERN SOUTH PLAINS

CITY           SKY/WX    TMP DP  RH WIND       PRES   REMARKS
ABERNATHY 5ENE   N/A     91  49  22 S12       30.02F
AMARILLO 9NNE    N/A     94  50  22 S15       29.96F
AMARILLO 7SSE    N/A     93  48  21 E1        30.00F
AMHERST 1NE      N/A     91  47  21 SE10      30.02F
BOOTLEG 11WNW    N/A     87  49  27 SE23      30.04F
CANADIAN 6E      N/A     93  59  31 S10       29.92F
CAPROCK CYN SP   N/A     93  53  25 SE12      29.96F
CHILDRESS 2NNE   N/A     94  56  28 SE5       29.93F
CLARENDON 2WSW   N/A     92  54  27 S9        29.97F
CLAUDE 12SW      N/A     90  54  28 SE8       29.99F
DIMMITT 2NE      N/A     90  47  22 S8        30.02F
FLOYDADA 2NNE    N/A     89  51  26 S3        30.01F
FRIONA 2NE       N/A     89  45  22 SE12      30.03F
GOODLETT 3W      N/A     97  54  23 S8        29.90F
HART 3N          N/A     90  49  24 SE6       30.02F
HEREFORD 2NW     N/A     90  44  20 S10       30.01F
MCLEAN 1E        N/A     91  53  27 SW7       29.96F
MEMPHIS 1NE      N/A     93  54  26 SW7       29.93F
MULESHOE 2SSW    N/A     92  43  18 S15       30.01F
OLTON 6S         N/A     92  46  20 S6        30.01F
PALO DURO SP     N/A     94  52  23 S10       30.00F
PAMPA 2E         N/A     91  53  27 S5        29.98F
PLAINVIEW 1S     N/A     90  54  28 SE10      30.00F
SILVERTON 7ESE   N/A     94  51  23 S6        29.99F
TULIA 2ENE       N/A     91  50  24 S8        30.01F
TURKEY 2WSW      N/A     95  53  24 S10       29.95F
UMBARGER 3NNE    N/A     90  46  21 S15       30.01F
$$

TXZ033>036-039>041-045>048-302200
TEXAS TECH WEST TEXAS MESONET/SOUTH PLAINS

CITY           SKY/WX    TMP DP  RH WIND       PRES   REMARKS
AIKEN 3WSW       N/A     88  61  39 SE9       30.02F
ANDREWS 2NE      N/A     94  44  18 E7        30.00F
ANTON 6SSW       N/A     92  48  22 SE3       30.01F
BROWNFIELD 2S    N/A     92  42  17 SE8       30.01F
DENVR CTY 7WNW   N/A     91  44  19 SE7       30.02F
GAIL 2ESE        N/A     93  51  23 SE5       29.96F
LAMESA 2SE       N/A     93  49  22 E7        30.00F
LEVELLAND 4S     N/A     91  44  20 E5        30.02F
LUBBOCK 3WNW     N/A     91  48  22 E7        30.01F
MORTON 1ENE      N/A     92  47  21 SE7G21    30.02F
ODONNELL 1N      N/A     92  43  18 E7        30.00F
PLAINS 3N        N/A     91  46  21 SE6       30.03F
RALLS 1SE        N/A     91  49  23 SE3       30.01F
REESE CENTER     N/A     92  44  19 SE9       30.01F
SEAGRAVES 1SW    N/A     92  46  20 E5        30.01F
SEMINOLE 2NNE    N/A     92  44  18 E7        30.01F
SLATON 2NE       N/A     90  48  23 S6        30.00F
SNYDER 3E        N/A     94  52  23 E9        29.97F
SUNDOWN 8SW      N/A     92  47  21 S9        30.02F
TAHOKA 3NNE      N/A     94  48  21 E3        30.00F
WOLFFORTH 6SSW   N/A     93  45  19 S3        30.02F
$$

TXZ031-032-036>038-042>044-302200-
TEXAS TECH WEST TEXAS MESONET/ROLLING PLAINS

CITY           SKY/WX    TMP DP  RH WIND       PRES   REMARKS
ASPERMONT 3NE    N/A     94  59  30 CALM      29.93F
FLUVANNA 3WNW    N/A     92  50  23 E10       29.98F
GRAHAM 5SSW      N/A     93  47  20 S7        29.99F
GUTHRIE 10WSW    N/A     94  59  31 SE7       29.94F
HASKELL 1NW      N/A     93  56  28 N2        29.92F
JAYTON 1SSE      N/A     94  50  22 E5        29.95F
KNOX CITY 3NW    N/A     95  59  29 NE1       29.92F
LK A HENRY 1NW   N/A     95  50  21 NE6       29.94F
NORTHFIELD 1S    N/A     94  54  26 S5        29.94F
ODELL 4ENE       N/A     95  57  27 CALM      29.90F
PADUCAH 10SW     N/A     93  58  31 E2        29.94F
POST 1NE         N/A     95  47  19 S3        29.97F
SEYMOUR 3NW      N/A     94  60  31 CALM      29.91F
SPUR 1W          N/A     91  53  26 NE5       29.96F
WEINERT 2NNE     N/A     93  62  35 SE2       29.92F
WHITE RVR 6NE    N/A     92  55  27 SE3       29.97F
$$

TXZ052-054-060>062-072-078-127-140-154-169-302200-
TEXAS TECH WEST TEXAS MESONET/PERMIAN BASIN/
CONCHO VALLEY/BIG COUNTRY/EDWARDS PLATEAU

CITY           SKY/WX    TMP DP  RH WIND       PRES   REMARKS
JUNCTION 1SSW    N/A     91  69  48 N9        29.92F HX  96
MERTZON 3NNE     N/A     93  64  38 E6        29.94F
SAN ANGELO 7NW   N/A     95  60  30 NE7       29.93F HX  95
STRLNG CT 4WSW   N/A     94  60  32 E6        29.96F
ST LAWRNCE 5SW   N/A     92  53  26 S1        29.97F
SWEETWATR 11SW   N/A     92  60  33 NE9       29.98F
WALL 1E          N/A     93  63  36 E7        29.93F
$$

TXZ055-058-074-075-080-082-302200-
TEXAS TECH WEST TEXAS MESONET/FAR WEST/SOUTHWEST MOUNTAINS/TRANS PECOS

CITY           SKY/WX    TMP DP  RH WIND       PRES   REMARKS
PRSMN GAP BBNP   N/A     96  54  24 NE16      29.93F
GUADLPE MTN NP   N/A     85  44  23 SE5       30.16F
$$